Have a Safe July 4th! 

Flight Track Log - Related Links

Times and Time Zones

All times are in EDT time to prevent confusion due to time zone crossing. See the N830QS flight status page for this flight to view local times or setup timezone preferences in your user account.

Time Position Orientation Groundspeed Altitude Reporting Facility
EDT Latitude Longitude Course Direction KTS MPH feet Rate Location/Type
Fri 03:32:00 PM 38.1872 -79.7746 72° East  Level Estimated
Fri 03:32:59 PM 37.8594 -80.2581 72° East 329 379 9,500  Level Washington Center
Fri 03:34:00 PM 37.8381 -80.1619 106° East 287 330 13,000 3,295 Climbing Washington Center
Fri 03:35:01 PM 37.8542 -80.0656 78° East 261 300 16,200 3,025 Climbing Washington Center
Fri 03:35:59 PM 37.8600 -79.9608 86° East 276 318 19,000 2,847 Climbing Washington Center
Fri 03:36:59 PM 37.8667 -79.8375 86° East 298 343 21,800 2,182 Climbing Washington Center
Fri 03:38:00 PM 37.8750 -79.7194 85° East 319 367 23,400 1,574 Climbing Washington Center
Fri 03:39:01 PM 37.8814 -79.5908 86° East 334 384 25,000 1,613 Climbing Washington Center
Fri 03:39:59 PM 37.8878 -79.4572 86° East 358 412 26,600 1,563 Climbing Washington Center
Fri 03:41:00 PM 37.8942 -79.3233 86° East 370 426 28,100 1,525 Climbing Washington Center
Fri 03:42:01 PM 37.9000 -79.2025 86° East 375 432 29,700 1,438 Climbing Washington Center
Fri 03:43:01 PM 37.9081 -79.0711 86° East 380 437 31,000 661 Climbing Washington Center
Fri 03:43:59 PM 37.9267 -78.9325 80° East 385 443 31,000  Level Washington Center
Fri 03:45:00 PM 37.9408 -78.7936 83° East 391 450 31,000  Level Washington Center
Fri 03:46:01 PM 37.9589 -78.6600 80° East 391 450 31,000  Level Washington Center
Fri 03:47:01 PM 37.9750 -78.5183 82° East 381 438 31,000  Level Washington Center
Fri 03:48:01 PM 37.9906 -78.3847 82° East 381 438 31,000  Level Washington Center
Fri 03:48:59 PM 38.0061 -78.2586 81° East 376 433 31,000  Level Washington Center
Fri 03:50:00 PM 38.0233 -78.1303 80° East 365 420 31,000  Level Washington Center
Fri 03:51:00 PM 38.0800 -78.0186 57° Northeast 358 412 31,000  Level Washington Center
Fri 03:52:01 PM 38.1342 -77.9094 58° Northeast 358 412 31,000  Level Washington Center
Fri 03:53:01 PM 38.1906 -77.7978 57° Northeast 370 426 31,000  Level Washington Center
Fri 03:53:59 PM 38.2447 -77.6883 58° Northeast 370 426 31,000  Level Washington Center
Fri 03:55:00 PM 38.2944 -77.5864 58° Northeast 370 426 31,000  Level Washington Center
Fri 03:56:01 PM 38.3483 -77.4767 58° Northeast 370 426 31,000  Level Washington Center
Fri 03:56:58 PM 38.4042 -77.3642 58° Northeast 365 420 31,000  Level Washington Center
Fri 03:57:59 PM 38.4578 -77.2567 57° Northeast 360 414 31,000  Level Washington Center
Fri 03:58:59 PM 38.4969 -77.1331 68° East 360 414 31,000  Level Washington Center
Fri 04:00:00 PM 38.5256 -77.0089 74° East 360 414 31,000  Level Washington Center
Fri 04:01:00 PM 38.5519 -76.8819 75° East 360 414 31,000  Level Washington Center
Fri 04:02:01 PM 38.5783 -76.7550 75° East 360 414 31,000  Level Washington Center
Fri 04:03:00 PM 38.6044 -76.6331 75° East 354 407 31,000 -450 Level Washington Center
Fri 04:04:01 PM 38.5889 -76.5081 99° East 349 402 30,100 -504 Descending Washington Center
Fri 04:04:59 PM 38.5500 -76.3856 112° Southeast 336 387 30,000 -51 Descending Washington Center
Fri 04:05:59 PM 38.4397 -76.3631 171° South 320 368 30,000  Level Washington Center
Fri 04:06:59 PM 38.3289 -76.3989 194° South 331 381 30,000  Level Washington Center
Fri 04:08:00 PM 38.2344 -76.5089 222° Southwest 345 397 30,000  Level Washington Center
Fri 04:09:01 PM 38.1997 -76.6564 253° West 375 432 30,000  Level Washington Center
Fri 04:10:01 PM 38.1817 -76.8122 262° West 409 471 30,000  Level Washington Center
Fri 04:10:59 PM 38.1633 -76.9622 261° West 424 488 30,000  Level Washington Center
Fri 04:11:59 PM 38.1447 -77.1150 261° West 434 499 30,000 -149 Level Washington Center
Fri 04:13:00 PM 38.1239 -77.2706 260° West 444 511 29,700 -934 Descending Washington Center
Fri 04:14:01 PM 38.1050 -77.4206 261° West 449 517 28,100 -857 Descending Washington Center
Fri 04:14:59 PM 38.0858 -77.5756 261° West 449 517 28,000 -50 Descending Washington Center
Fri 04:16:00 PM 38.0667 -77.7256 261° West 444 511 28,000  Level Washington Center
Fri 04:17:00 PM 38.0472 -77.8778 261° West 444 511 28,000  Level Washington Center
Fri 04:17:59 PM 38.0294 -78.0328 262° West 444 511 28,000  Level Washington Center
Fri 04:18:59 PM 38.0039 -78.1639 256° West 444 511 28,000  Level Washington Center
Fri 04:20:00 PM 37.9197 -78.2953 231° Southwest 431 496 28,000  Level Washington Center
Fri 04:21:00 PM 37.8375 -78.4158 229° Southwest 437 503 28,000 -500 Level Washington Center
Fri 04:22:00 PM 37.7556 -78.5308 228° Southwest 442 509 27,000 -1,240 Descending Washington Center
Fri 04:23:01 PM 37.6822 -78.6331 228° Southwest 448 516 25,500 -1,488 Descending Washington Center
Fri 04:24:01 PM 37.6064 -78.7428 229° Southwest 436 502 24,000 -1,450 Descending Washington Center
Fri 04:25:01 PM 37.5306 -78.8497 228° Southwest 424 488 22,600 -1,017 Descending Washington Center
Fri 04:25:59 PM 37.4522 -78.9589 228° Southwest 424 488 22,000 -305 Descending Washington Center
Fri 04:26:59 PM 37.3697 -79.0753 228° Southwest 424 488 22,000  Level Washington Center
Fri 04:28:00 PM 37.2936 -79.1789 227° Southwest 424 488 22,000  Level Washington Center
Fri 04:29:00 PM 37.2172 -79.2875 229° Southwest 424 488 22,000  Level Washington Center
Fri 04:30:01 PM 37.1431 -79.3986 230° Southwest 424 488 22,000  Level Washington Center
Fri 04:30:59 PM 37.0706 -79.5069 230° Southwest 424 488 22,000 -814 Level Washington Center
Fri 04:31:59 PM 36.9981 -79.6150 230° Southwest 419 482 20,400 -1,835 Descending Washington Center
Fri 04:33:00 PM 36.9367 -79.7053 230° Southwest 409 471 18,300 -2,066 Descending Washington Center
Fri 04:34:00 PM 36.8534 -79.8222 228° Southwest  Level FlightAware Approximate
Fri 04:41:00 PM 36.0497 -79.9667 180° South  Level FlightAware Approximate
Fri 04:42:00 PM 36.1000 -79.9333 15° North  Level FlightAware Approximate
Fri 04:43:00 PM 36.1923 -79.8285 15° North  Level Estimated
Fri 04:44:00 PM 36.1000 -79.9333 15° North  Level FlightAware Approximate
Fri 04:45:00 PM 36.1923 -79.8285 15° North  Level Estimated
Fri 04:46:00 PM 36.1000 -79.9333 15° North  Level FlightAware Approximate
Fri 04:47:00 PM 36.1923 -79.8285 15° North  Level Estimated
Fri 04:48:00 PM 36.1000 -79.9333 15° North  Level FlightAware Approximate
Fri 04:49:00 PM 36.1923 -79.8285 15° North  Level Estimated
Fri 04:50:00 PM 36.1000 -79.9333 15° North  Level FlightAware Approximate
Fri 04:51:00 PM 36.1923 -79.8285 15° North  Level Estimated
Fri 04:52:00 PM 36.1000 -79.9333 15° North  Level FlightAware Approximate
Fri 04:53:00 PM 36.1923 -79.8285 15° North  Level Estimated
Fri 04:54:00 PM 36.1000 -79.9333 15° North  Level FlightAware Approximate
Fri 04:55:00 PM 36.1923 -79.8285 15° North  Level Estimated
Fri 04:56:00 PM 36.1000 -79.9333 15° North  Level FlightAware Approximate
Fri 04:57:00 PM 36.1923 -79.8285 15° North  Level Estimated
Fri 04:58:00 PM 36.1000 -79.9333 15° North  Level FlightAware Approximate
Fri 04:59:00 PM 36.1923 -79.8285 15° North  Level Estimated
Fri 05:00:00 PM 36.1000 -79.9333 15° North  Level FlightAware Approximate
Fri 05:01:00 PM 36.1923 -79.8285 15° North  Level Estimated
Fri 05:02:00 PM 36.1000 -79.9333 15° North  Level FlightAware Approximate
Fri 05:03:00 PM 36.1923 -79.8285 15° North  Level Estimated
Fri 05:04:00 PM 36.1000 -79.9333 15° North  Level FlightAware Approximate

Login

Don't have an account? Register now (free) for customized features, flight alerts, and more!